Home > Time Zones > World Clock > Weather > India > Theni > Past weeks

Flag for India Weather past 2 weeks in Theni, Tamil Nadu, India

Now
81 °F

Passing clouds.


Feels Like: 83 °F
Forecast: 74 / 96 °F
Wind: 12 mph from Southwest

Location: Coimbatore / Peelamedu

Current Time: Sep 18, 2014 at 7:31:21 PM

Latest Report: Sep 18, 2014 at 6:30 PM


Visibility: 4 mi

Pressure: 29.80 "Hg

Humidity: 66%

Dew point: 68 °F

Location of TheniLocation

Historic Weather in Theni — Graph

°F

Theni temperature yesterday

Maximum temperature yesterday: 91 °F (at 2:30 PM)
Minimum temperature yesterday: 73 °F (at 4:30 AM)
Average temperature yesterday: 82 °F

Past Weeks' High & Low Weather Summary

 TemperatureHumidityPressure
High91 °F (Sep 6, 1:00 PM)94% (Sep 5, 6:00 AM)29.95 "Hg (Sep 5, 6:00 AM)
Low72 °F (Sep 10, 6:30 AM)15% (Sep 14, 2:30 PM)29.71 "Hg (Sep 16, 4:30 PM)
Average80 °F71%29.85 "Hg
* Reported Sep 3 6:30 PM — Sep 18 6:30 PM, Theni, Weather by CustomWeather, © 2014

Note: Actual official high and low records may vary slightly from our data, if they occured in-between our weather recording intervals... More about our weather records

Advertising

Theni weather history for previous 24 hours

 ConditionsComfort  
Time TempWeatherWind HumidityBarometerVisibility
6:30 PM
Sep 18
81 °FPassing clouds.12 mph66%29.80 "Hg4 mi
6:00 PM82 °FPassing clouds.12 mph58%29.80 "Hg4 mi
5:30 PM82 °FPassing clouds.12 mph58%29.80 "Hg4 mi
5:00 PM86 °FPassing clouds.12 mph55%29.77 "Hg4 mi
4:30 PM86 °FPassing clouds.14 mph55%29.77 "Hg4 mi
4:00 PM86 °FScattered clouds.14 mph55%29.77 "Hg4 mi
3:30 PM88 °FPassing clouds.16 mph52%29.77 "Hg4 mi
3:00 PM90 °FPassing clouds.16 mph49%29.77 "Hg4 mi
2:30 PM90 °FPassing clouds.12 mph49%29.77 "Hg4 mi
2:00 PM90 °FPassing clouds.13 mph43%29.77 "Hg4 mi
1:30 PM90 °FPassing clouds.12 mph43%29.77 "Hg4 mi
1:00 PM90 °FPassing clouds.15 mph49%29.77 "Hg4 mi
12:30 PM90 °FPassing clouds.14 mph52%29.80 "Hg4 mi
12:00 PM88 °FPassing clouds.18 mph55%29.80 "Hg4 mi
11:30 AM88 °FPassing clouds.14 mph55%29.83 "Hg4 mi
11:00 AM86 °FPassing clouds.16 mph55%29.83 "Hg4 mi
10:30 AM84 °FPassing clouds.12 mph62%29.86 "Hg4 mi
10:00 AM82 °FScattered clouds.12 mph66%29.86 "Hg4 mi
9:30 AM81 °FScattered clouds.12 mph70%29.86 "Hg4 mi
9:00 AM79 °FScattered clouds.12 mph74%29.86 "Hg4 mi
8:30 AM77 °FScattered clouds.9 mph83%29.86 "Hg4 mi
8:00 AM77 °FPassing clouds.9 mph83%29.86 "Hg4 mi
7:00 AM73 °FPassing clouds.5 mph94%29.83 "Hg4 mi
6:30 AM73 °FPassing clouds.9 mph94%29.83 "Hg4 mi
6:00 AM73 °FPassing clouds.7 mph94%29.80 "Hg4 mi
5:30 AM73 °FPassing clouds.7 mph94%29.80 "Hg4 mi
4:30 AM73 °FPassing clouds.9 mph94%29.77 "Hg4 mi
4:00 AM73 °FPassing clouds.12 mph94%29.77 "Hg4 mi
3:30 AM73 °FPassing clouds.10 mph94%29.77 "Hg4 mi
3:00 AM73 °FPassing clouds.12 mph94%29.77 "Hg4 mi
2:30 AM75 °FPassing clouds.10 mph89%29.77 "Hg4 mi
1:30 AM75 °FPassing clouds.9 mph83%29.80 "Hg4 mi
11:30 PM
Sep 17
75 °FPassing clouds.12 mph83%29.83 "Hg4 mi
10:30 PM77 °FPassing clouds.15 mph79%29.83 "Hg4 mi
10:00 PM77 °FPassing clouds.12 mph79%29.83 "Hg4 mi
9:30 PM77 °FPassing clouds.13 mph79%29.83 "Hg4 mi
9:00 PM77 °FPassing clouds.10 mph79%29.83 "Hg4 mi
8:30 PM77 °FPassing clouds.15 mph79%29.83 "Hg4 mi
8:00 PM79 °FPassing clouds.15 mph74%29.80 "Hg4 mi
7:30 PM79 °FPassing clouds.12 mph74%29.80 "Hg4 mi
7:00 PM81 °FPassing clouds.8 mph70%29.77 "Hg4 mi
Weather by CustomWeather, © 2014

See weather overviewHow to use our weather pages